Date String (YYYY-MM-DD hh:mm:ss) UTC,Instrument flags,Ambient pressure (hPa),Sample flow (lpm),Bypass flow (lpm),Sample temperature (°C),Ambient temperature (°C),ASC tube jacket temperature (°C),LED temperature (°C),Box temperature (°C),Sample RH (%),Span deviation,Mass concentration (μg/m³),Mass concentration (μg/m³),Mass concentration (μg/m³)
DateTimeUTC,F1_M11,P_M11,Q1_M11,Q2_M11,T1_M11,T2_M11,T3_M11,T4_M11,T5_M11,U1_M11,ZSPAN_M11,X2_M11,X0_M11,X1_M11
2021-12-16 15:00:00,,0821.2,5.00,0.00,22.5,22.8,00.0,31.3,24.3,07.3,0000.0,0001.51,0009.26,0000.78
2021-12-16 15:01:00,,0821.2,5.00,0.00,22.5,22.7,00.0,31.3,24.3,07.3,0000.0,0001.55,0008.78,0000.78
2021-12-16 15:02:00,,0821.2,4.99,0.00,22.5,22.5,00.0,31.3,24.3,07.3,0000.0,0001.57,0008.71,0000.79
2021-12-16 15:03:00,,0821.2,5.00,0.00,22.5,22.4,00.0,31.3,24.3,07.4,0000.0,0001.56,0008.37,0000.82
2021-12-16 15:04:00,,0821.1,5.00,0.00,22.5,22.3,00.0,31.3,24.2,07.4,0000.0,0001.58,0007.65,0000.84
2021-12-16 15:05:00,,0821.2,5.00,0.00,22.5,22.2,00.0,31.3,24.2,07.4,0000.0,0001.60,0007.42,0000.88
2021-12-16 15:06:00,,0821.3,5.01,0.00,22.5,22.1,00.0,31.4,24.2,07.5,0000.0,0001.61,0007.22,0000.90
2021-12-16 15:07:00,,0821.4,5.00,0.00,22.5,22.1,00.0,31.4,24.2,07.5,0000.0,0001.63,0006.24,0000.93
2021-12-16 15:08:00,,0821.3,5.00,0.00,22.5,22.0,00.0,31.4,24.2,07.5,0000.0,0001.63,0006.31,0000.95
2021-12-16 15:09:00,,0821.4,4.99,0.00,22.5,22.0,00.0,31.4,24.2,07.4,0000.0,0001.71,0007.35,0000.97
2021-12-16 15:10:00,,0821.4,5.01,0.00,22.5,21.9,00.0,31.4,24.2,07.5,0000.0,0001.82,0007.36,0000.99
2021-12-16 15:11:00,,0821.3,5.00,0.00,22.5,21.9,00.0,31.4,24.2,07.5,0000.0,0001.89,0006.37,0001.03
2021-12-16 15:12:00,,0821.3,4.99,0.00,22.5,21.9,00.0,31.4,24.3,07.5,0000.0,0001.90,0006.33,0001.06
2021-12-16 15:13:00,,0821.4,5.01,0.00,22.5,21.9,00.0,31.4,24.2,07.6,0000.0,0001.91,0007.44,0001.07
2021-12-16 15:14:00,,0821.3,5.00,0.00,22.5,21.9,00.0,31.4,24.2,07.5,0000.0,0001.98,0007.56,0001.08
2021-12-16 15:15:00,,0821.3,5.00,0.00,22.5,21.9,00.0,31.4,24.2,07.4,0000.0,0002.05,0007.46,0001.08
2021-12-16 15:16:00,,0821.4,5.00,0.00,22.5,21.9,00.0,31.4,24.2,07.5,0000.0,0002.13,0007.40,0001.09
2021-12-16 15:17:00,,0821.3,5.00,0.00,22.5,21.9,00.0,31.4,24.2,07.5,0000.0,0002.14,0007.41,0001.09
2021-12-16 15:18:00,,0821.3,4.99,0.00,22.5,21.9,00.0,31.4,24.2,07.6,0000.0,0002.12,0007.91,0001.09
2021-12-16 15:19:00,,0821.3,5.01,0.00,22.5,21.9,00.0,31.4,24.2,07.6,0000.0,0002.21,0008.41,0001.09
2021-12-16 15:20:00,,0821.3,5.01,0.00,22.5,21.9,00.0,31.4,24.2,07.6,0000.0,0002.28,0009.02,0001.11
2021-12-16 15:21:00,,0821.2,4.99,0.00,22.5,21.8,00.0,31.4,24.2,07.5,0000.0,0002.30,0008.98,0001.12
2021-12-16 15:22:00,,0821.2,5.01,0.00,22.5,21.8,00.0,31.4,24.1,07.6,0000.0,0002.39,0009.11,0001.12
2021-12-16 15:23:00,,0821.2,5.00,0.00,22.4,21.8,00.0,31.4,24.1,07.7,0000.0,0002.41,0009.04,0001.14
2021-12-16 15:24:00,,0821.2,5.00,0.00,22.4,21.8,00.0,31.4,24.1,07.7,0000.0,0002.52,0008.69,0001.18
2021-12-16 15:25:00,,0821.1,5.00,0.00,22.4,21.8,00.0,31.4,24.1,07.7,0000.0,0002.56,0008.96,0001.21
2021-12-16 15:26:00,,0821.2,5.00,0.00,22.4,21.8,00.0,31.4,24.1,07.6,0000.0,0002.64,0009.32,0001.24
2021-12-16 15:27:00,,0821.1,5.00,0.00,22.4,21.8,00.0,31.4,24.1,07.7,0000.0,0002.59,0009.25,0001.24
2021-12-16 15:28:00,,0821.1,5.00,0.00,22.4,21.8,00.0,31.4,24.1,07.7,0000.0,0002.64,0009.78,0001.27
2021-12-16 15:29:00,,0821.2,4.98,0.00,22.4,21.8,00.0,31.4,24.1,07.6,0000.0,0002.70,0010.33,0001.29
2021-12-16 15:30:00,,0821.2,5.00,0.00,22.4,21.8,00.0,31.4,24.1,07.7,0000.0,0002.73,0009.91,0001.32
2021-12-16 15:31:00,,0821.2,5.00,0.00,22.4,21.7,00.0,31.4,24.1,07.7,0000.0,0002.71,0009.21,0001.36
2021-12-16 15:32:00,,0821.2,4.99,0.00,22.4,21.7,00.0,31.4,24.0,07.7,0000.0,0002.75,0009.43,0001.40
2021-12-16 15:33:00,,0821.2,5.00,0.00,22.4,21.7,00.0,31.4,24.0,07.6,0000.0,0002.74,0009.80,0001.41
2021-12-16 15:34:00,,0821.2,5.00,0.00,22.4,21.7,00.0,31.4,24.0,07.5,0000.0,0002.82,0009.94,0001.42
2021-12-16 15:35:00,,0821.2,4.99,0.00,22.4,22.2,00.0,31.4,24.2,07.6,0000.0,0002.80,0010.00,0001.42
2021-12-16 15:36:00,,0821.2,5.00,0.00,22.6,23.1,00.0,31.4,24.5,07.6,0000.0,0002.81,0009.77,0001.42
2021-12-16 15:37:00,,0821.2,5.00,0.00,22.7,23.4,00.0,31.5,24.7,07.5,0000.0,0002.80,0009.34,0001.42
2021-12-16 15:38:00,,0821.2,5.00,0.00,22.7,23.2,00.0,31.5,24.7,07.5,0000.0,0002.96,0010.26,0001.44
2021-12-16 15:39:00,,0821.2,5.02,0.00,22.7,23.0,00.0,31.5,24.6,07.6,0000.0,0003.04,0011.08,0001.45
2021-12-16 15:40:00,,0821.2,4.99,0.00,22.7,22.8,00.0,31.5,24.5,07.5,0000.0,0003.00,0010.66,0001.47
2021-12-16 15:41:00,,0821.2,5.01,0.00,22.7,22.6,00.0,31.6,24.5,07.5,0000.0,0003.04,0010.86,0001.48
2021-12-16 15:42:00,,0821.2,4.99,0.00,22.7,22.5,00.0,31.6,24.4,07.6,0000.0,0003.04,0011.17,0001.48
2021-12-16 15:43:00,,0821.2,5.01,0.00,22.7,22.4,00.0,31.6,24.4,07.5,0000.0,0003.04,0011.37,0001.47
2021-12-16 15:44:00,,0821.3,5.01,0.00,22.7,22.3,00.0,31.6,24.4,07.5,0000.0,0003.05,0010.76,0001.47
2021-12-16 15:45:00,,0821.2,4.99,0.00,22.7,22.3,00.0,31.6,24.4,07.5,0000.0,0003.03,0010.60,0001.49
2021-12-16 15:46:00,,0821.3,4.99,0.00,22.7,22.3,00.0,31.6,24.4,07.5,0000.0,0003.03,0010.59,0001.49
2021-12-16 15:47:00,,0821.3,5.01,0.00,22.7,22.2,00.0,31.6,24.4,07.5,0000.0,0003.07,0011.34,0001.51
2021-12-16 15:48:00,,0821.4,5.00,0.00,22.7,22.2,00.0,31.6,24.4,07.5,0000.0,0003.11,0011.95,0001.52
2021-12-16 15:49:00,,0821.3,5.00,0.00,22.7,22.1,00.0,31.6,24.4,07.5,0000.0,0003.15,0012.22,0001.52
2021-12-16 15:50:00,,0821.3,5.00,0.00,22.7,22.1,00.0,31.6,24.4,07.6,0000.0,0003.14,0012.41,0001.52
2021-12-16 15:51:00,,0821.4,5.00,0.00,22.7,22.1,00.0,31.6,24.4,07.6,0000.0,0003.15,0012.14,0001.52
2021-12-16 15:52:00,,0821.4,4.99,0.00,22.7,22.1,00.0,31.6,24.4,07.6,0000.0,0003.15,0011.65,0001.53
2021-12-16 15:53:00,,0821.4,5.01,0.00,22.7,22.1,00.0,31.6,24.3,07.6,0000.0,0003.16,0011.89,0001.53
2021-12-16 15:54:00,,0821.4,5.00,0.00,22.6,22.0,00.0,31.6,24.3,07.7,0000.0,0003.21,0011.99,0001.56
2021-12-16 15:55:00,,0821.4,4.99,0.00,22.6,22.0,00.0,31.6,24.3,07.8,0000.0,0003.26,0012.55,0001.61
2021-12-16 15:56:00,,0821.5,4.99,0.00,22.6,22.0,00.0,31.6,24.2,07.9,0000.0,0003.32,0012.94,0001.67
2021-12-16 15:57:00,,0821.5,5.02,0.00,22.6,22.0,00.0,31.6,24.2,07.9,0000.0,0003.39,0013.63,0001.74
2021-12-16 15:58:00,,0821.5,4.99,0.00,22.6,21.9,00.0,31.6,24.2,07.9,0000.0,0003.46,0014.41,0001.79
2021-12-16 15:59:00,,0821.4,5.01,0.00,22.6,21.9,00.0,31.6,24.3,07.9,0000.0,0003.49,0014.35,0001.83
